Location: Gradaro
(45.0833°N, 10.8833°E)
Time: 22:19:06
(UTC+00:00)

FENGYUN 1C DEB - Pass Details

Date: 24 June 2021
Orbit: 744 x 851 km, 99.4° (Epoch: 27 July)

Event Time Altitude Azimuth Distance (km) Brightness Sun altitude
Exits shadow 22:25:51 14° 105° (ESE) 2,189 ? -20.5°
Maximum altitude 22:29:08 23° 61° (ENE) 1,677 ? -20.6°
Drops below altitude 10° 22:33:12 10° 10° (N) 2,395 ? -20.7°
Sets 22:35:56 0° 357° (N) 3,311 ? -20.8°
